GW5748 Weather Reports


time (UTC)temp
C
wind
direction
speed
KPH
gust
KPH
rain 1hr
cm
rain 24hr
cm
rain mn
cm
humidity
%
barometer
mb
20260504070350 8 190 0.0 0.0 0.00 0.00 0.00 62 1015.4
20260504050738 9 175 1.6 1.6 0.00 0.00 0.00 61 1015.9
20260504050235 9 171 0.0 0.0 0.00 0.00 0.00 58 1015.8
20260504045732 9 135 0.0 0.0 0.00 0.00 0.00 56 1016.0
20260504045227 9 134 0.0 0.0 0.00 0.00 0.00 54 1015.9
20260504044725 9 134 0.0 0.0 0.00 0.00 0.00 55 1015.8
20260504044222 9 134 0.0 0.0 0.00 0.00 0.00 53 1015.7
20260504043719 9 134 0.0 0.0 0.00 0.00 0.00 57 1015.8
20260504043216 9 134 0.0 0.0 0.00 0.00 0.00 61 1015.7
20260504042714 9 134 0.0 0.0 0.00 0.00 0.00 53 1015.7
20260504042210 9 134 0.0 0.0 0.00 0.00 0.00 55 1015.7
20260504041706 10 133 0.0 0.0 0.00 0.00 0.00 57 1015.6
20260504041202 10 133 0.0 0.0 0.00 0.00 0.00 49 1015.6
20260504040659 10 133 0.0 0.0 0.00 0.00 0.00 52 1015.7
20260504040156 10 132 0.0 0.0 0.00 0.00 0.00 51 1015.7
20260504035652 10 132 0.0 0.0 0.00 0.00 0.00 49 1015.6
20260504035149 10 132 0.0 0.0 0.00 0.00 0.00 49 1015.5
20260504034647 10 132 0.0 0.0 0.00 0.00 0.00 52 1015.6
20260504034144 10 131 0.0 0.0 0.00 0.00 0.00 52 1015.5
20260504033641 9 164 0.0 0.0 0.00 0.00 0.00 55 1015.6
20260504033139 9 158 0.0 0.0 0.00 0.00 0.00 52 1015.4
20260504032635 9 158 0.0 0.0 0.00 0.00 0.00 53 1015.5
20260504032132 10 159 0.0 0.0 0.00 0.00 0.00 57 1015.6
20260504031630 10 132 0.0 0.0 0.00 0.00 0.00 52 1015.4
20260504031126 10 121 0.0 1.6 0.00 0.00 0.00 55 1015.6
20260504030622 10 100 1.6 3.2 0.00 0.00 0.00 54 1015.5
20260504030119 10 131 1.6 1.6 0.00 0.00 0.00 53 1015.6
20260504025616 11 191 0.0 0.0 0.00 0.00 0.00 45 1015.6
20260504025113 11 192 1.6 1.6 0.00 0.00 0.00 42 1015.6
20260504024610 11 192 0.0 0.0 0.00 0.00 0.00 43 1015.6
20260504024107 11 192 1.6 1.6 0.00 0.00 0.00 43 1015.3
20260504023603 10 192 1.6 1.6 0.00 0.00 0.00 44 1015.4
20260504023059 10 192 1.6 1.6 0.00 0.00 0.00 46 1015.5
20260504022555 10 195 1.6 1.6 0.00 0.00 0.00 44 1015.5
20260504022052 10 198 1.6 1.6 0.00 0.00 0.00 46 1015.4
20260504021549 10 209 3.2 3.2 0.00 0.00 0.00 45 1015.4
20260504021046 11 212 3.2 4.8 0.00 0.00 0.00 44 1015.4
20260504020543 11 207 3.2 3.2 0.00 0.00 0.00 42 1015.2
20260504020040 11 214 3.2 3.2 0.00 0.00 0.00 41 1015.1
20260504015536 11 209 3.2 3.2 0.00 0.00 0.00 40 1015.1
20260504015032 10 211 3.2 4.8 0.00 0.00 0.00 42 1015.0
20260504014528 10 204 3.2 3.2 0.00 0.00 0.00 42 1015.1
20260504014026 10 208 3.2 3.2 0.00 0.00 0.00 42 1014.9
20260504013523 10 210 3.2 3.2 0.00 0.00 0.00 40 1014.8
20260504013020 10 222 6.4 6.4 0.00 0.00 0.00 41 1014.9
20260504012518 10 225 3.2 4.8 0.00 0.00 0.00 40 1014.8
20260504012016 10 211 1.6 3.2 0.00 0.00 0.00 40 1014.8
20260504011512 10 216 3.2 3.2 0.00 0.00 0.00 41 1014.7
20260504011008 10 216 3.2 3.2 0.00 0.00 0.00 41 1014.8
20260504010504 10 208 1.6 1.6 0.00 0.00 0.00 43 1014.5
20260504005959 11 208 0.0 0.0 0.00 0.00 0.00 40 1014.6
20260504005456 11 208 0.0 0.0 0.00 0.00 0.00 36 1014.5
20260504004954 11 208 1.6 1.6 0.00 0.00 0.00 35 1014.5
20260504004451 11 208 1.6 1.6 0.00 0.00 0.00 34 1014.5
20260504003949 11 208 1.6 1.6 0.00 0.00 0.00 38 1014.4
20260504003444 12 207 1.6 1.6 0.00 0.00 0.00 35 1014.4
20260504002942 12 207 1.6 1.6 0.00 0.00 0.00 34 1014.6
20260504002439 13 207 1.6 1.6 0.00 0.00 0.00 33 1014.5
20260504001936 13 208 1.6 1.6 0.00 0.00 0.00 32 1014.3
20260504001433 13 205 1.6 1.6 0.00 0.00 0.00 31 1014.5
20260504000930 13 204 1.6 1.6 0.00 0.00 0.00 31 1014.5
20260504000427 13 204 1.6 1.6 0.00 0.00 0.00 30 1014.4
20260503235924 14 204 1.6 3.2 0.00 0.00 0.00 28 1014.3
20260503235422 15 204 1.6 1.6 0.00 0.00 0.00 27 1014.5
20260503234919 15 204 1.6 1.6 0.00 0.00 0.00 26 1014.3
20260503234417 15 204 1.6 1.6 0.00 0.00 0.00 25 1014.3
20260503233914 15 204 3.2 3.2 0.00 0.00 0.00 25 1014.2
20260503233411 15 204 4.8 4.8 0.00 0.00 0.00 25 1014.1
20260503232907 16 206 1.6 3.2 0.00 0.00 0.00 25 1014.3
20260503232404 16 219 3.2 3.2 0.00 0.00 0.00 24 1014.1
20260503231902 16 203 3.2 4.8 0.00 0.00 0.00 25 1014.0
20260503231359 16 198 0.0 1.6 0.00 0.00 0.00 26 1014.0
20260503230855 16 206 6.4 6.4 0.00 0.00 0.00 24 1014.1
20260503230352 16 208 4.8 6.4 0.00 0.00 0.00 23 1014.2
20260503225850 16 238 6.4 9.7 0.00 0.00 0.00 23 1014.1
20260503225345 17 202 3.2 3.2 0.00 0.00 0.00 25 1014.0
20260503224842 17 195 0.0 1.6 0.00 0.00 0.00 24 1014.0
20260503224339 17 227 4.8 6.4 0.00 0.00 0.00 23 1014.0
20260503223837 16 200 1.6 1.6 0.00 0.00 0.00 26 1014.2
20260503223334 17 213 8.0 9.7 0.00 0.00 0.00 24 1014.1
20260503222830 17 210 6.4 6.4 0.00 0.00 0.00 25 1014.0
20260503222329 17 186 1.6 1.6 0.00 0.00 0.00 27 1014.1
20260503221826 17 183 1.6 3.2 0.00 0.00 0.00 22 1014.0
20260503221325 17 283 1.6 3.2 0.00 0.00 0.00 23 1013.9
20260503220820 17 181 4.8 4.8 0.00 0.00 0.00 25 1014.0
20260503220318 17 207 4.8 6.4 0.00 0.00 0.00 24 1014.4
20260503215814 17 216 4.8 6.4 0.00 0.00 0.00 24 1014.1
20260503215311 17 198 1.6 1.6 0.00 0.00 0.00 22 1014.1
20260503214809 17 233 12.9 14.5 0.00 0.00 0.00 23 1014.2
20260503214306 18 220 8.0 9.7 0.00 0.00 0.00 25 1014.3
20260503213804 18 186 0.0 0.0 0.00 0.00 0.00 25 1014.1
20260503213301 17 207 1.6 3.2 0.00 0.00 0.00 25 1014.3
20260503212758 17 215 1.6 1.6 0.00 0.00 0.00 26 1014.3
20260503212255 16 200 6.4 9.7 0.00 0.00 0.00 27 1014.2
20260503211753 16 184 4.8 4.8 0.00 0.00 0.00 26 1014.1
20260503211249 16 206 6.4 6.4 0.00 0.00 0.00 25 1014.1
20260503210744 16 213 4.8 4.8 0.00 0.00 0.00 27 1014.3
20260503210242 16 164 12.9 14.5 0.00 0.00 0.00 26 1014.4
20260503205742 17 204 6.4 6.4 0.00 0.00 0.00 26 1014.4
20260503205239 17 196 6.4 6.4 0.00 0.00 0.00 26 1014.5
20260503204735 17 204 4.8 6.4 0.00 0.00 0.00 27 1014.5
20260503204233 17 170 4.8 4.8 0.00 0.00 0.00 29 1014.4
20260503203730 17 209 6.4 6.4 0.00 0.00 0.00 28 1014.5
20260503203228 17 189 3.2 3.2 0.00 0.00 0.00 26 1014.6
20260503202725 17 210 11.3 16.1 0.00 0.00 0.00 25 1014.6
20260503202223 17 138 1.6 3.2 0.00 0.00 0.00 22 1014.6
20260503201720 17 221 3.2 4.8 0.00 0.00 0.00 25 1014.6
20260503201218 17 231 6.4 6.4 0.00 0.00 0.00 24 1014.6
20260503200714 17 197 1.6 3.2 0.00 0.00 0.00 26 1014.8
20260503200210 17 185 3.2 4.8 0.00 0.00 0.00 30 1014.9
20260503195707 17 84 3.2 3.2 0.00 0.00 0.00 27 1014.9
20260503195204 17 33 3.2 6.4 0.00 0.00 0.00 29 1015.1
20260503194701 16 224 6.4 9.7 0.00 0.00 0.00 24 1015.2
20260503194156 17 210 4.8 4.8 0.00 0.00 0.00 26 1015.2
20260503193653 17 157 1.6 1.6 0.00 0.00 0.00 31 1015.0
20260503193149 16 119 1.6 3.2 0.00 0.00 0.00 27 1015.2
20260503192645 16 82 3.2 3.2 0.00 0.00 0.00 27 1015.4
20260503192140 16 183 0.0 1.6 0.00 0.00 0.00 29 1015.3
20260503191638 16 210 12.9 16.1 0.00 0.00 0.00 30 1015.3
20260503191135 16 200 9.7 14.5 0.00 0.00 0.00 30 1015.5
20260503190632 16 196 12.9 14.5 0.00 0.00 0.00 27 1015.5
20260503190128 16 193 6.4 9.7 0.00 0.00 0.00 26 1015.8
20260503185625 16 221 14.5 16.1 0.00 0.00 0.00 34 1015.8
20260503185120 16 200 6.4 9.7 0.00 0.00 0.00 35 1015.9
20260503184615 15 149 0.0 0.0 0.00 0.00 0.00 31 1016.0
20260503184112 15 202 3.2 3.2 0.00 0.00 0.00 34 1016.0
20260503183609 16 141 1.6 3.2 0.00 0.00 0.00 30 1016.2
20260503183106 15 224 6.4 9.7 0.00 0.00 0.00 33 1016.1
20260503182605 15 200 9.7 12.9 0.00 0.00 0.00 31 1016.1
20260503182102 15 186 9.7 11.3 0.00 0.00 0.00 33 1016.4
20260503181559 15 176 9.7 12.9 0.00 0.00 0.00 34 1016.5
20260503181055 14 178 3.2 3.2 0.00 0.00 0.00 31 1016.5
20260503180553 15 241 16.1 20.9 0.00 0.00 0.00 30 1016.5
20260503180050 15 226 12.9 14.5 0.00 0.00 0.00 33 1016.7
20260503175547 15 169 0.0 1.6 0.00 0.00 0.00 36 1016.6
20260503175044 14 62 9.7 11.3 0.00 0.00 0.00 30 1016.2
20260503174541 15 209 4.8 6.4 0.00 0.00 0.00 33 1016.6
20260503174038 14 118 3.2 4.8 0.00 0.00 0.00 32 1016.5
20260503173533 15 31 4.8 6.4 0.00 0.00 0.00 33 1016.7
20260503173029 15 54 6.4 9.7 0.00 0.00 0.00 35 1016.6
20260503172527 14 87 0.0 3.2 0.00 0.00 0.00 32 1016.8
20260503172024 15 33 9.7 12.9 0.00 0.00 0.00 31 1016.7
20260503171520 15 100 3.2 3.2 0.00 0.00 0.00 34 1017.0
20260503171018 13 115 3.2 3.2 0.00 0.00 0.00 36 1016.9
20260503170514 13 69 4.8 6.4 0.00 0.00 0.00 38 1017.0
20260503150906 10 143 0.0 1.6 0.00 0.00 0.00 42 1018.4
20260503150403 10 129 1.6 1.6 0.00 0.00 0.00 39 1018.3
20260503131256 8 195 4.8 4.8 0.00 0.00 0.00 43 1018.4
20260503130754 8 350 3.2 3.2 0.00 0.00 0.00 43 1018.4
20260503130251 8 214 6.4 9.7 0.00 0.00 0.00 42 1018.5
20260503120217 7 280 1.6 3.2 0.00 0.00 0.00 48 1018.1
20260503110644 7 173 0.0 0.0 0.00 0.00 0.00 59 1017.6
20260503110142 6 135 0.0 1.6 0.00 0.00 0.00 59 1017.3
20260503100108 4 56 1.6 3.2 0.00 0.00 0.00 64 1015.8
20260503081422 4 180 0.0 0.0 0.00 0.00 0.00 57 1015.1
20260503080919 4 188 0.0 0.0 0.00 0.00 0.00 57 1015.2
20260503080415 3 177 0.0 0.0 0.00 0.00 0.00 59 1015.1